Regional Weather Roundup
Issued by NWS Albany, NY

Home | Current Version | Previous Version | Graphics & Text | Print | Product List | Glossary On
Versions: 1 2 3 4 5 6 7 8 9 10 11 12 13 14 15 16 17 18 19 20 21 22 23 24 25 26 27 28 29 30 31 32 33 34 35 36 37 38 39 40 41 42 43 44 45 46 47 48 49 50
000
ASUS41 KALY 271910
RWRALY

NEW YORK STATE HOURLY WEATHER ROUNDUP
NATIONAL WEATHER SERVICE ALBANY NY
300 PM EDT SUN JUL 27 2014

NOTE: "FAIR" INDICATES FEW OR NO CLOUDS BELOW 12,000 FEET WITH NO
SIGNIFICANT WEATHER AND/OR NO OBSTRUCTIONS TO VISIBILITY.

NYZ032-033-038>043-046>054-057>066-NYZ062>081-272000-
EAST


CITY           SKY/WX    TMP DP  RH WIND       PRES   REMARKS
ALBANY         PTSUNNY   83  68  60 S8        29.65F THUNDER
GLENS FALLS    MOSUNNY   79  67  66 SW6       29.65F
POUGHKEEPSIE   MOSUNNY   83  69  62 S8        29.68F
NEWBURGH       MOSUNNY   84  70  61 S8        29.72F
MONTGOMERY     MOSUNNY   85  66  53 VRB6      29.70F
WHITE PLAINS   MOSUNNY   82  68  62 VRB3      29.72F
ISLIP          PTSUNNY   82  70  66 SW15      29.72F
NEW YORK CITY  PTSUNNY   86  66  51 SW12      29.71F
CENTRAL PARK   SUNNY     84  68  58 MISG      29.74F
$$

NYZ005>009-017-018-044>046-055-056-272000-
CENTRAL


CITY           SKY/WX    TMP DP  RH WIND       PRES   REMARKS
FULTON         PTSUNNY   77  62  59 W13       29.69F
SYRACUSE       MOSUNNY   81  65  58 W13G20    29.68S
ROME           MOSUNNY   80  66  62 W12       29.68F
ELMIRA         SUNNY     87  57  35 W12G18    29.69F
BINGHAMTON     MOSUNNY   82  60  47 W15       29.73F
MONTICELLO     PTSUNNY   79  64  61 W5        29.76S
$$

NYZ026>034-041>043-272000-
NORTH


CITY           SKY/WX    TMP DP  RH WIND       PRES   REMARKS
WATERTOWN      PTSUNNY   75  64  68 SW15G25   29.67R
FORT DRUM      NOT AVBL
MASSENA        PTSUNNY   77  67  71 W8        29.63S
SARANAC LAKE   TSTM      71  64  78 SW8G17    29.67S
PLATTSBURGH    PTSUNNY   74  66  76 SE12      29.62F
$$

NYZ001>004-010>016-019>021-272000-
WEST


CITY           SKY/WX    TMP DP  RH WIND       PRES   REMARKS
NIAGARA FALLS  PTSUNNY   79  64  60 SW15      29.69F
BUFFALO        PTSUNNY   77  61  57 SW13      29.71F
DUNKIRK        PTSUNNY   77  67  71 W20       29.73S
JAMESTOWN      MOSUNNY   79  63  57 SW12      29.76F
WELLSVILLE     SUNNY     78  58  49 VRB6      29.80F
ROCHESTER      PTSUNNY   82  62  50 W10       29.69F
PENN YAN       SUNNY     83  59  44 W10       29.71F
$$

             KEY
       WCI = WIND CHILL INDEX
       VSB = VISIBILITY
       HX  = HEAT INDEX
$$


USA.gov is the U.S. government's official web portal to all federal, state and local government web resources and services.